Weather History for Nellis AFB, NV

Change the Weather History Date:

Saturday, September 28, 2013

  Actual Average Record
Temperature  
Mean Temperature 68 °F -  
Max Temperature 80 °F 89 °F 102 °F (2010)
Min Temperature 56 °F 62 °F 56 °F (2013)
Cooling Degree Days 3    
Growing Degree Days 18 (Base 50)    
Moisture  
Dew Point 23 °F    
Average Humidity 20    
Maximum Humidity 30    
Minimum Humidity 11    
Precipitation  
Precipitation 0.00 in - - ()
Sea Level Pressure  
Sea Level Pressure 30.06 in    
Wind  
Wind Speed 4 mph (NE)    
Max Wind Speed 13 mph    
Max Gust Speed -    
Visibility 10 miles    
Events      
Averages and records for this station are not official NWS values.
T = Trace of Precipitation, MM = Missing Value Source: NWS Daily Summary

Daily Weather History Graph

Daily Weather History Graph

Search for Another Location

Airport:

Trip Planner

Search our weather history database for the weather conditions in past years. The results will help you decide how hot, cold, wet, or windy it might be!

Date:

Astronomy

Sep. 28, 2013 Rise Set
Actual Time 6:33 AM PDT 6:27 PM PDT
Civil Twilight 6:07 AM PDT 6:53 PM PDT
Nautical Twilight 5:37 AM PDT 7:23 PM PDT
Astronomical Twilight 5:07 AM PDT 7:53 PM PDT
Moon 12:33 AM PDT (9/28) 2:40 PM PDT (9/28)
Length of Visible Light 12h 45m
Length of Day
11h 54m
Waning Crescent, 35% of the Moon is Illuminated
Sep 28
Waning Crescent
Oct 4
New
Oct 11
First Quarter
Oct 18
Full
Oct 26
Last Quarter

Hourly Weather History & Observations

Time (PDT) Temp. Dew Point Humidity Pressure Visibility Wind Dir Wind Speed Gust Speed Precip Events Conditions
12:58 AM 57.4 °F 22.8 °F 26% 30.04 in 10.0 mi ENE 2.3 mph - N/A   Clear
1:58 AM 59.2 °F 24.8 °F 27% 30.06 in 10.0 mi South 1.2 mph - N/A   Clear
2:58 AM 60.6 °F 24.3 °F 25% 30.04 in 10.0 mi ESE 4.6 mph - N/A   Clear
3:58 AM 58.1 °F 26.4 °F 30% 30.05 in 10.0 mi NW 4.6 mph - N/A   Clear
4:58 AM 56.3 °F 24.6 °F 29% 30.06 in 10.0 mi North 3.5 mph - N/A   Clear
5:58 AM 56.1 °F 23.7 °F 29% 30.09 in 10.0 mi North 3.5 mph - N/A   Clear
6:58 AM 56.1 °F 24.4 °F 29% 30.10 in 10.0 mi Calm Calm - N/A   Clear
7:58 AM 59.5 °F 25.3 °F 27% 30.12 in 10.0 mi Variable 2.3 mph - N/A   Clear
8:58 AM 64.4 °F 26.1 °F 23% 30.13 in 10.0 mi NW 5.8 mph - N/A   Clear
9:58 AM 70.3 °F 25.7 °F 19% 30.12 in 10.0 mi NE 10.4 mph - N/A   Clear
10:58 AM 73.0 °F 26.2 °F 18% 30.11 in 10.0 mi NE 11.5 mph - N/A   Clear
11:58 AM 75.2 °F 26.4 °F 16% 30.10 in 10.0 mi ENE 12.7 mph - N/A   Clear
12:58 PM 76.5 °F 25.3 °F 15% 30.07 in 10.0 mi ENE 8.1 mph - N/A   Clear
1:58 PM 77.7 °F 23.5 °F 13% 30.05 in 10.0 mi ENE 1.2 mph - N/A   Clear
2:58 PM 78.3 °F 24.1 °F 13% 30.03 in 10.0 mi East 5.8 mph - N/A   Clear
3:58 PM 79.5 °F 21.0 °F 11% 30.02 in 10.0 mi ENE 4.6 mph - N/A   Clear
4:58 PM 80.6 °F 21.9 °F 11% 30.00 in 10.0 mi ENE 4.6 mph - N/A   Clear
5:58 PM 79.3 °F 21.0 °F 11% 30.00 in 10.0 mi Calm Calm - N/A   Clear
6:58 PM 76.6 °F 24.1 °F 14% 30.01 in 10.0 mi SSW 4.6 mph - N/A   Clear
7:58 PM 71.2 °F 22.1 °F 16% 30.01 in 10.0 mi NE 5.8 mph - N/A   Clear
8:58 PM 68.0 °F 19.0 °F 15% 30.04 in 10.0 mi NE 8.1 mph - N/A   Clear
9:58 PM 65.8 °F 18.9 °F 17% 30.04 in 10.0 mi NE 6.9 mph - N/A   Clear
10:58 PM 66.0 °F 20.3 °F 17% 30.05 in 10.0 mi Calm Calm - N/A   Clear
11:58 PM 60.4 °F 19.2 °F 20% 30.05 in 10.0 mi NE 3.5 mph - N/A   Clear